"FILENAME","TIMESTAMP","SAMPLE","STATION","LATITUDE","LONGITUDE","SAMPLE_DATE","SAMPLE_TIME","DEPTH","DEPTH_UNITS","TOTALQ","TOTALV","TOTALU","FECALQ","FECALV","FECALU","ENTEROQ","ENTEROV","ENTEROU",
"201311COLISBOO.csv","2014JAN30154150","1311026794","I25",  32.56117,-117.14800,"20131102",1041,2,"m","",1500,"CFU/100 mL","e",480,"CFU/100 mL","<",2,"CFU/100 mL",
"201311COLISBOO.csv","2014JAN30154150","1311026795","I25",  32.56117,-117.14800,"20131102",1041,6,"m","e",1000,"CFU/100 mL","e",280,"CFU/100 mL","e",2,"CFU/100 mL",
"201311COLISBOO.csv","2014JAN30154150","1311026796","I25",  32.56117,-117.14800,"20131102",1041,9,"m","e",60,"CFU/100 mL","e",18,"CFU/100 mL","e",2,"CFU/100 mL",
"201311COLISBOO.csv","2014JAN30154150","1311026797","I26",  32.57450,-117.14700,"20131102",1052,2,"m","<",2,"CFU/100 mL","<",2,"CFU/100 mL","<",2,"CFU/100 mL",
"201311COLISBOO.csv","2014JAN30154150","1311026798","I26",  32.57450,-117.14700,"20131102",1052,6,"m","<",2,"CFU/100 mL","<",2,"CFU/100 mL","<",2,"CFU/100 mL",
"201311COLISBOO.csv","2014JAN30154150","1311026799","I26",  32.57450,-117.14700,"20131102",1052,9,"m","e",6,"CFU/100 mL","e",4,"CFU/100 mL","<",2,"CFU/100 mL",
"201311COLISBOO.csv","2014JAN30154150","1311026800","I39",  32.57233,-117.16750,"20131102",1025,2,"m","<",2,"CFU/100 mL","<",2,"CFU/100 mL","<",2,"CFU/100 mL",
"201311COLISBOO.csv","2014JAN30154150","1311026801","I39",  32.57233,-117.16750,"20131102",1025,12,"m","<",2,"CFU/100 mL","<",2,"CFU/100 mL","<",2,"CFU/100 mL",
"201311COLISBOO.csv","2014JAN30154150","1311026802","I39",  32.57233,-117.16750,"20131102",1025,18,"m","e",4,"CFU/100 mL","e",2,"CFU/100 mL","<",2,"CFU/100 mL",
"201311COLISBOO.csv","2014JAN30154150","1311046943","I25",  32.56117,-117.14800,"20131104",1000,2,"m","e",2,"CFU/100 mL","e",2,"CFU/100 mL","",,"",
"201311COLISBOO.csv","2014JAN30154150","1311057012","S0",  32.41913,-117.09728,"20131105",1030,,"m","e",2600,"CFU/100 mL","e",120,"CFU/100 mL","e",80,"CFU/100 mL",
"201311COLISBOO.csv","2014JAN30154150","1311057013","S10",  32.54330,-117.12500,"20131105",1110,,"m","<",20,"CFU/100 mL","e",8,"CFU/100 mL","e",8,"CFU/100 mL",
"201311COLISBOO.csv","2014JAN30154150","1311057014","S11",  32.56130,-117.13200,"20131105",938,,"m","e",40,"CFU/100 mL","e",14,"CFU/100 mL","",42,"CFU/100 mL",
"201311COLISBOO.csv","2014JAN30154150","1311057015","S12",  32.58570,-117.13300,"20131105",1019,,"m","e",40,"CFU/100 mL","e",24,"CFU/100 mL","e",160,"CFU/100 mL",
"201311COLISBOO.csv","2014JAN30154150","1311057016","S2",  32.49870,-117.12300,"20131105",1140,,"m","e",140,"CFU/100 mL","",60,"CFU/100 mL","",120,"CFU/100 mL",
"201311COLISBOO.csv","2014JAN30154150","1311057017","S3",  32.52570,-117.12400,"20131105",1105,,"m","e",140,"CFU/100 mL","e",38,"CFU/100 mL","e",100,"CFU/100 mL",
"201311COLISBOO.csv","2014JAN30154150","1311057018","S4",  32.53530,-117.12500,"20131105",1052,,"m","e",60,"CFU/100 mL","e",10,"CFU/100 mL","e",8,"CFU/100 mL",
"201311COLISBOO.csv","2014JAN30154150","1311057019","S5",  32.55780,-117.13100,"20131105",924,,"m","<",20,"CFU/100 mL","e",12,"CFU/100 mL","e",160,"CFU/100 mL",
"201311COLISBOO.csv","2014JAN30154150","1311057020","S6",  32.56630,-117.13300,"20131105",951,,"m","e",60,"CFU/100 mL","e",14,"CFU/100 mL","e",8,"CFU/100 mL",
"201311COLISBOO.csv","2014JAN30154150","1311057021","S8",  32.63680,-117.14400,"20131105",1139,,"m","<",20,"CFU/100 mL","<",2,"CFU/100 mL","e",16,"CFU/100 mL",
"201311COLISBOO.csv","2014JAN30154150","1311057022","S9",  32.67700,-117.17800,"20131105",1159,,"m","e",20,"CFU/100 mL","e",24,"CFU/100 mL","e",14,"CFU/100 mL",
"201311COLISBOO.csv","2014JAN30154150","1311066390","I10",  32.51667,-117.15600,"20131106",1114,2,"m","<",2,"CFU/100 mL","<",2,"CFU/100 mL","<",2,"CFU/100 mL",
"201311COLISBOO.csv","2014JAN30154150","1311066391","I10",  32.51667,-117.15600,"20131106",1114,12,"m","<",2,"CFU/100 mL","<",2,"CFU/100 mL","<",2,"CFU/100 mL",
"201311COLISBOO.csv","2014JAN30154150","1311066392","I10",  32.51667,-117.15600,"20131106",1114,18,"m","<",2,"CFU/100 mL","<",2,"CFU/100 mL","<",2,"CFU/100 mL",
"201311COLISBOO.csv","2014JAN30154150","1311066393","I11",  32.51333,-117.13700,"20131106",1102,2,"m","<",2,"CFU/100 mL","<",2,"CFU/100 mL","<",2,"CFU/100 mL",
"201311COLISBOO.csv","2014JAN30154150","1311066394","I11",  32.51333,-117.13700,"20131106",1102,6,"m","<",2,"CFU/100 mL","<",2,"CFU/100 mL","<",2,"CFU/100 mL",
"201311COLISBOO.csv","2014JAN30154150","1311066395","I11",  32.51333,-117.13700,"20131106",1102,11,"m","e",6,"CFU/100 mL","e",2,"CFU/100 mL","<",2,"CFU/100 mL",
"201311COLISBOO.csv","2014JAN30154150","1311066396","I13",  32.53750,-117.21200,"20131106",1155,2,"m","e",2,"CFU/100 mL","<",2,"CFU/100 mL","<",2,"CFU/100 mL",
"201311COLISBOO.csv","2014JAN30154150","1311066397","I13",  32.53750,-117.21200,"20131106",1155,18,"m","<",2,"CFU/100 mL","<",2,"CFU/100 mL","<",2,"CFU/100 mL",
"201311COLISBOO.csv","2014JAN30154150","1311066398","I13",  32.53750,-117.21200,"20131106",1155,37,"m","<",2,"CFU/100 mL","<",2,"CFU/100 mL","<",2,"CFU/100 mL",
"201311COLISBOO.csv","2014JAN30154150","1311066399","I20",  32.55700,-117.25700,"20131106",835,2,"m","<",2,"CFU/100 mL","<",2,"CFU/100 mL","<",2,"CFU/100 mL",
"201311COLISBOO.csv","2014JAN30154150","1311066400","I20",  32.55700,-117.25700,"20131106",835,18,"m","<",2,"CFU/100 mL","e",2,"CFU/100 mL","<",2,"CFU/100 mL",
"201311COLISBOO.csv","2014JAN30154150","1311066401","I20",  32.55700,-117.25700,"20131106",835,55,"m","<",2,"CFU/100 mL","<",2,"CFU/100 mL","<",2,"CFU/100 mL",
"201311COLISBOO.csv","2014JAN30154150","1311066402","I21",  32.56067,-117.22700,"20131106",1211,2,"m","<",2,"CFU/100 mL","<",2,"CFU/100 mL","<",2,"CFU/100 mL",
"201311COLISBOO.csv","2014JAN30154150","1311066403","I21",  32.56067,-117.22700,"20131106",1211,18,"m","<",2,"CFU/100 mL","<",2,"CFU/100 mL","<",2,"CFU/100 mL",
"201311COLISBOO.csv","2014JAN30154150","1311066404","I21",  32.56067,-117.22700,"20131106",1211,37,"m","<",2,"CFU/100 mL","<",2,"CFU/100 mL","<",2,"CFU/100 mL",
"201311COLISBOO.csv","2014JAN30154150","1311066405","I3",  32.46700,-117.16800,"20131106",1000,2,"m","<",2,"CFU/100 mL","<",2,"CFU/100 mL","<",2,"CFU/100 mL",
"201311COLISBOO.csv","2014JAN30154150","1311066406","I3",  32.46700,-117.16800,"20131106",1000,18,"m","<",2,"CFU/100 mL","<",2,"CFU/100 mL","<",2,"CFU/100 mL",
"201311COLISBOO.csv","2014JAN30154150","1311066407","I3",  32.46700,-117.16800,"20131106",1000,27,"m","<",2,"CFU/100 mL","<",2,"CFU/100 mL","<",2,"CFU/100 mL",
"201311COLISBOO.csv","2014JAN30154150","1311066408","I5",  32.47167,-117.13000,"20131106",1031,2,"m","e",80,"CFU/100 mL","",52,"CFU/100 mL","<",2,"CFU/100 mL",
"201311COLISBOO.csv","2014JAN30154150","1311066409","I5",  32.47167,-117.13000,"20131106",1031,6,"m","e",3400,"CFU/100 mL","",460,"CFU/100 mL","e",34,"CFU/100 mL",
"201311COLISBOO.csv","2014JAN30154150","1311066410","I5",  32.47167,-117.13000,"20131106",1031,11,"m","",660,"CFU/100 mL","",120,"CFU/100 mL","e",10,"CFU/100 mL",
"201311COLISBOO.csv","2014JAN30154150","1311066411","I7",  32.51667,-117.25300,"20131106",855,2,"m","<",2,"CFU/100 mL","<",2,"CFU/100 mL","<",2,"CFU/100 mL",
"201311COLISBOO.csv","2014JAN30154150","1311066412","I7",  32.51667,-117.25300,"20131106",855,18,"m","<",2,"CFU/100 mL","<",2,"CFU/100 mL","<",2,"CFU/100 mL",
"201311COLISBOO.csv","2014JAN30154150","1311066413","I7",  32.51667,-117.25300,"20131106",855,52,"m","<",2,"CFU/100 mL","<",2,"CFU/100 mL","<",2,"CFU/100 mL",
"201311COLISBOO.csv","2014JAN30154150","1311066414","I8",  32.51667,-117.20200,"20131106",1139,2,"m","<",2,"CFU/100 mL","<",2,"CFU/100 mL","<",2,"CFU/100 mL",
"201311COLISBOO.csv","2014JAN30154150","1311066415","I8",  32.51667,-117.20200,"20131106",1139,18,"m","<",2,"CFU/100 mL","<",2,"CFU/100 mL","<",2,"CFU/100 mL",
"201311COLISBOO.csv","2014JAN30154150","1311066416","I8",  32.51667,-117.20200,"20131106",1139,37,"m","<",2,"CFU/100 mL","<",2,"CFU/100 mL","<",2,"CFU/100 mL",
"201311COLISBOO.csv","2014JAN30154150","1311066417","I9",  32.51167,-117.17900,"20131106",1126,2,"m","<",2,"CFU/100 mL","<",2,"CFU/100 mL","<",2,"CFU/100 mL",
"201311COLISBOO.csv","2014JAN30154150","1311066418","I9",  32.51167,-117.17900,"20131106",1126,18,"m","<",2,"CFU/100 mL","<",2,"CFU/100 mL","<",2,"CFU/100 mL",
"201311COLISBOO.csv","2014JAN30154150","1311066419","I9",  32.51167,-117.17900,"20131106",1126,27,"m","<",2,"CFU/100 mL","<",2,"CFU/100 mL","<",2,"CFU/100 mL",
"201311COLISBOO.csv","2014JAN30154150","1311076466","I12",  32.53283,-117.18300,"20131107",1119,2,"m","<",2,"CFU/100 mL","<",2,"CFU/100 mL","<",2,"CFU/100 mL",
"201311COLISBOO.csv","2014JAN30154150","1311076467","I12",  32.53283,-117.18300,"20131107",1119,18,"m","<",2,"CFU/100 mL","<",2,"CFU/100 mL","<",2,"CFU/100 mL",
"201311COLISBOO.csv","2014JAN30154150","1311076468","I12",  32.53283,-117.18300,"20131107",1119,27,"m","<",2,"CFU/100 mL","<",2,"CFU/100 mL","<",2,"CFU/100 mL",
"201311COLISBOO.csv","2014JAN30154150","1311076469","I14",  32.54300,-117.18400,"20131107",1144,2,"m","<",2,"CFU/100 mL","<",2,"CFU/100 mL","<",2,"CFU/100 mL",
"201311COLISBOO.csv","2014JAN30154150","1311076470","I14",  32.54300,-117.18400,"20131107",1144,18,"m","e",6,"CFU/100 mL","e",2,"CFU/100 mL","<",2,"CFU/100 mL",
"201311COLISBOO.csv","2014JAN30154150","1311076471","I14",  32.54300,-117.18400,"20131107",1144,27,"m","<",2,"CFU/100 mL","e",6,"CFU/100 mL","<",2,"CFU/100 mL",
"201311COLISBOO.csv","2014JAN30154150","1311076472","I16",  32.53783,-117.18300,"20131107",1059,2,"m","e",6,"CFU/100 mL","<",2,"CFU/100 mL","e",2,"CFU/100 mL",
"201311COLISBOO.csv","2014JAN30154150","1311076473","I16",  32.53783,-117.18300,"20131107",1059,18,"m","e",10,"CFU/100 mL","e",2,"CFU/100 mL","<",2,"CFU/100 mL",
"201311COLISBOO.csv","2014JAN30154150","1311076474","I16",  32.53783,-117.18300,"20131107",1059,27,"m","<",2,"CFU/100 mL","e",2,"CFU/100 mL","<",2,"CFU/100 mL",
"201311COLISBOO.csv","2014JAN30154150","1311076475","I18",  32.53617,-117.16100,"20131107",1020,2,"m","<",2,"CFU/100 mL","<",2,"CFU/100 mL","<",2,"CFU/100 mL",
"201311COLISBOO.csv","2014JAN30154150","1311076476","I18",  32.53617,-117.16100,"20131107",1020,12,"m","<",2,"CFU/100 mL","<",2,"CFU/100 mL","<",2,"CFU/100 mL",
"201311COLISBOO.csv","2014JAN30154150","1311076477","I18",  32.53617,-117.16100,"20131107",1020,18,"m","<",2,"CFU/100 mL","<",2,"CFU/100 mL","<",2,"CFU/100 mL",
"201311COLISBOO.csv","2014JAN30154150","1311076478","I19",  32.53633,-117.12900,"20131107",1000,2,"m","e",6,"CFU/100 mL","<",2,"CFU/100 mL","<",2,"CFU/100 mL",
"201311COLISBOO.csv","2014JAN30154150","1311076479","I19",  32.53633,-117.12900,"20131107",1000,6,"m","<",2,"CFU/100 mL","<",2,"CFU/100 mL","<",2,"CFU/100 mL",
"201311COLISBOO.csv","2014JAN30154150","1311076480","I19",  32.53633,-117.12900,"20131107",1000,11,"m","<",20,"CFU/100 mL","<",2,"CFU/100 mL","<",2,"CFU/100 mL",
"201311COLISBOO.csv","2014JAN30154150","1311076481","I22",  32.55333,-117.18500,"20131107",1156,2,"m","<",2,"CFU/100 mL","<",2,"CFU/100 mL","<",2,"CFU/100 mL",
"201311COLISBOO.csv","2014JAN30154150","1311076482","I22",  32.55333,-117.18500,"20131107",1156,18,"m","e",2,"CFU/100 mL","<",2,"CFU/100 mL","<",2,"CFU/100 mL",
"201311COLISBOO.csv","2014JAN30154150","1311076483","I22",  32.55333,-117.18500,"20131107",1156,27,"m","<",2,"CFU/100 mL","<",2,"CFU/100 mL","<",2,"CFU/100 mL",
"201311COLISBOO.csv","2014JAN30154150","1311076484","I23",  32.55083,-117.16500,"20131107",1210,2,"m","<",2,"CFU/100 mL","<",2,"CFU/100 mL","<",2,"CFU/100 mL",
"201311COLISBOO.csv","2014JAN30154150","1311076485","I23",  32.55083,-117.16500,"20131107",1210,12,"m","e",4,"CFU/100 mL","<",2,"CFU/100 mL","<",2,"CFU/100 mL",
"201311COLISBOO.csv","2014JAN30154150","1311076486","I23",  32.55083,-117.16500,"20131107",1210,18,"m","<",2,"CFU/100 mL","<",2,"CFU/100 mL","<",2,"CFU/100 mL",
"201311COLISBOO.csv","2014JAN30154150","1311076487","I24",  32.55667,-117.14500,"20131107",936,2,"m","e",4,"CFU/100 mL","<",2,"CFU/100 mL","<",2,"CFU/100 mL",
"201311COLISBOO.csv","2014JAN30154150","1311076488","I24",  32.55667,-117.14500,"20131107",936,6,"m","e",4,"CFU/100 mL","e",2,"CFU/100 mL","<",2,"CFU/100 mL",
"201311COLISBOO.csv","2014JAN30154150","1311076489","I24",  32.55667,-117.14500,"20131107",936,11,"m","e",2,"CFU/100 mL","e",2,"CFU/100 mL","e",2,"CFU/100 mL",
"201311COLISBOO.csv","2014JAN30154150","1311076490","I25",  32.56117,-117.14800,"20131107",925,2,"m","<",2,"CFU/100 mL","<",2,"CFU/100 mL","<",2,"CFU/100 mL",
"201311COLISBOO.csv","2014JAN30154150","1311076491","I25",  32.56117,-117.14800,"20131107",925,6,"m","e",2,"CFU/100 mL","<",2,"CFU/100 mL","<",2,"CFU/100 mL",
"201311COLISBOO.csv","2014JAN30154150","1311076492","I25",  32.56117,-117.14800,"20131107",925,9,"m","<",20,"CFU/100 mL","<",2,"CFU/100 mL","<",2,"CFU/100 mL",
"201311COLISBOO.csv","2014JAN30154150","1311076493","I26",  32.57450,-117.14700,"20131107",909,2,"m","<",2,"CFU/100 mL","<",2,"CFU/100 mL","<",2,"CFU/100 mL",
"201311COLISBOO.csv","2014JAN30154150","1311076494","I26",  32.57450,-117.14700,"20131107",909,6,"m","<",2,"CFU/100 mL","<",2,"CFU/100 mL","<",2,"CFU/100 mL",
"201311COLISBOO.csv","2014JAN30154150","1311076495","I26",  32.57450,-117.14700,"20131107",909,9,"m","<",2,"CFU/100 mL","<",2,"CFU/100 mL","<",2,"CFU/100 mL",
"201311COLISBOO.csv","2014JAN30154150","1311076496","I39",  32.57233,-117.16750,"20131107",900,2,"m","<",2,"CFU/100 mL","<",2,"CFU/100 mL","<",2,"CFU/100 mL",
"201311COLISBOO.csv","2014JAN30154150","1311076497","I39",  32.57233,-117.16750,"20131107",900,12,"m","<",2,"CFU/100 mL","<",2,"CFU/100 mL","<",2,"CFU/100 mL",
"201311COLISBOO.csv","2014JAN30154150","1311076498","I39",  32.57233,-117.16750,"20131107",900,18,"m","e",2,"CFU/100 mL","<",2,"CFU/100 mL","<",2,"CFU/100 mL",
"201311COLISBOO.csv","2014JAN30154150","1311076499","I40",  32.55383,-117.13617,"20131107",947,2,"m","e",2,"CFU/100 mL","<",2,"CFU/100 mL","<",2,"CFU/100 mL",
"201311COLISBOO.csv","2014JAN30154150","1311076500","I40",  32.55383,-117.13617,"20131107",947,6,"m","e",4,"CFU/100 mL","<",2,"CFU/100 mL","<",2,"CFU/100 mL",
"201311COLISBOO.csv","2014JAN30154150","1311076501","I40",  32.55383,-117.13617,"20131107",947,9,"m","e",8,"CFU/100 mL","<",2,"CFU/100 mL","e",2,"CFU/100 mL",
"201311COLISBOO.csv","2014JAN30154150","1311078559","S12",  32.58570,-117.13300,"20131107",1249,,"m","",,"","",,"","e",16,"CFU/100 mL",
"201311COLISBOO.csv","2014JAN30154150","1311078560","S5",  32.55780,-117.13100,"20131107",1017,,"m","",,"","",,"","<",2,"CFU/100 mL",
"201311COLISBOO.csv","2014JAN30154150","1311086546","I30",  32.59533,-117.19700,"20131108",854,2,"m","<",2,"CFU/100 mL","<",2,"CFU/100 mL","<",2,"CFU/100 mL",
"201311COLISBOO.csv","2014JAN30154151","1311086547","I30",  32.59533,-117.19700,"20131108",854,18,"m","<",2,"CFU/100 mL","<",2,"CFU/100 mL","<",2,"CFU/100 mL",
"201311COLISBOO.csv","2014JAN30154151","1311086548","I30",  32.59533,-117.19700,"20131108",854,27,"m","<",2,"CFU/100 mL","<",2,"CFU/100 mL","<",2,"CFU/100 mL",
"201311COLISBOO.csv","2014JAN30154151","1311086549","I32",  32.59467,-117.13800,"20131108",921,2,"m","<",20,"CFU/100 mL","e",2,"CFU/100 mL","<",2,"CFU/100 mL",
"201311COLISBOO.csv","2014JAN30154151","1311086550","I32",  32.59467,-117.13800,"20131108",921,6,"m","<",2,"CFU/100 mL","e",4,"CFU/100 mL","<",2,"CFU/100 mL",
"201311COLISBOO.csv","2014JAN30154151","1311086551","I32",  32.59467,-117.13800,"20131108",921,9,"m","<",20,"CFU/100 mL","<",2,"CFU/100 mL","<",2,"CFU/100 mL",
"201311COLISBOO.csv","2014JAN30154151","1311086552","I33",  32.62383,-117.23700,"20131108",810,2,"m","<",2,"CFU/100 mL","<",2,"CFU/100 mL","<",2,"CFU/100 mL",
"201311COLISBOO.csv","2014JAN30154151","1311086553","I33",  32.62383,-117.23700,"20131108",810,18,"m","<",2,"CFU/100 mL","<",2,"CFU/100 mL","<",2,"CFU/100 mL",
"201311COLISBOO.csv","2014JAN30154151","1311086554","I33",  32.62383,-117.23700,"20131108",810,27,"m","<",2,"CFU/100 mL","<",2,"CFU/100 mL","<",2,"CFU/100 mL",
"201311COLISBOO.csv","2014JAN30154151","1311086555","I36",  32.63917,-117.15400,"20131108",941,2,"m","<",2,"CFU/100 mL","<",2,"CFU/100 mL","<",2,"CFU/100 mL",
"201311COLISBOO.csv","2014JAN30154151","1311086556","I36",  32.63917,-117.15400,"20131108",941,6,"m","<",2,"CFU/100 mL","<",2,"CFU/100 mL","<",2,"CFU/100 mL",
"201311COLISBOO.csv","2014JAN30154151","1311086557","I36",  32.63917,-117.15400,"20131108",941,11,"m","<",2,"CFU/100 mL","<",2,"CFU/100 mL","<",2,"CFU/100 mL",
"201311COLISBOO.csv","2014JAN30154151","1311086558","I37",  32.64800,-117.21633,"20131108",747,2,"m","<",2,"CFU/100 mL","<",2,"CFU/100 mL","<",2,"CFU/100 mL",
"201311COLISBOO.csv","2014JAN30154151","1311086559","I37",  32.64800,-117.21633,"20131108",747,6,"m","<",2,"CFU/100 mL","<",2,"CFU/100 mL","<",2,"CFU/100 mL",
"201311COLISBOO.csv","2014JAN30154151","1311086560","I37",  32.64800,-117.21633,"20131108",747,11,"m","<",2,"CFU/100 mL","<",2,"CFU/100 mL","<",2,"CFU/100 mL",
"201311COLISBOO.csv","2014JAN30154151","1311086561","I38",  32.66883,-117.18667,"20131108",1012,2,"m","<",2,"CFU/100 mL","<",2,"CFU/100 mL","<",2,"CFU/100 mL",
"201311COLISBOO.csv","2014JAN30154151","1311086562","I38",  32.66883,-117.18667,"20131108",1012,6,"m","<",2,"CFU/100 mL","<",2,"CFU/100 mL","<",2,"CFU/100 mL",
"201311COLISBOO.csv","2014JAN30154151","1311086563","I38",  32.66883,-117.18667,"20131108",1012,11,"m","<",2,"CFU/100 mL","<",2,"CFU/100 mL","<",2,"CFU/100 mL",
"201311COLISBOO.csv","2014JAN30154151","1311127322","I25",  32.56117,-117.14800,"20131112",1103,2,"m","<",2,"CFU/100 mL","<",2,"CFU/100 mL","<",2,"CFU/100 mL",
"201311COLISBOO.csv","2014JAN30154151","1311127323","I25",  32.56117,-117.14800,"20131112",1103,6,"m","<",2,"CFU/100 mL","<",2,"CFU/100 mL","<",2,"CFU/100 mL",
"201311COLISBOO.csv","2014JAN30154151","1311127324","I25",  32.56117,-117.14800,"20131112",1103,9,"m","<",2,"CFU/100 mL","<",2,"CFU/100 mL","<",2,"CFU/100 mL",
"201311COLISBOO.csv","2014JAN30154151","1311127325","I26",  32.57450,-117.14700,"20131112",1115,2,"m","<",2,"CFU/100 mL","<",2,"CFU/100 mL","<",2,"CFU/100 mL",
"201311COLISBOO.csv","2014JAN30154151","1311127326","I26",  32.57450,-117.14700,"20131112",1115,6,"m","<",2,"CFU/100 mL","<",2,"CFU/100 mL","<",2,"CFU/100 mL",
"201311COLISBOO.csv","2014JAN30154151","1311127327","I26",  32.57450,-117.14700,"20131112",1115,9,"m","e",2,"CFU/100 mL","<",2,"CFU/100 mL","<",2,"CFU/100 mL",
"201311COLISBOO.csv","2014JAN30154151","1311127328","I39",  32.57233,-117.16750,"20131112",1048,2,"m","<",2,"CFU/100 mL","<",2,"CFU/100 mL","<",2,"CFU/100 mL",
"201311COLISBOO.csv","2014JAN30154151","1311127329","I39",  32.57233,-117.16750,"20131112",1048,12,"m","<",2,"CFU/100 mL","<",2,"CFU/100 mL","<",2,"CFU/100 mL",
"201311COLISBOO.csv","2014JAN30154151","1311127330","I39",  32.57233,-117.16750,"20131112",1048,18,"m","<",2,"CFU/100 mL","<",2,"CFU/100 mL","<",2,"CFU/100 mL",
"201311COLISBOO.csv","2014JAN30154151","1311127578","S0",  32.41913,-117.09728,"20131112",1055,,"m","e",2600,"CFU/100 mL","e",200,"CFU/100 mL","e",160,"CFU/100 mL",
"201311COLISBOO.csv","2014JAN30154151","1311127579","S10",  32.54330,-117.12500,"20131112",1246,,"m","e",40,"CFU/100 mL","<",2,"CFU/100 mL","e",4,"CFU/100 mL",
"201311COLISBOO.csv","2014JAN30154151","1311127580","S11",  32.56130,-117.13200,"20131112",1135,,"m","e",2,"CFU/100 mL","<",2,"CFU/100 mL","<",2,"CFU/100 mL",
"201311COLISBOO.csv","2014JAN30154151","1311127581","S12",  32.58570,-117.13300,"20131112",1100,,"m","e",6,"CFU/100 mL","<",2,"CFU/100 mL","e",2,"CFU/100 mL",
"201311COLISBOO.csv","2014JAN30154151","1311127582","S2",  32.49870,-117.12300,"20131112",1235,,"m","<",20,"CFU/100 mL","e",2,"CFU/100 mL","e",4,"CFU/100 mL",
"201311COLISBOO.csv","2014JAN30154151","1311127583","S3",  32.52570,-117.12400,"20131112",1145,,"m","<",20,"CFU/100 mL","e",32,"CFU/100 mL","e",12,"CFU/100 mL",
"201311COLISBOO.csv","2014JAN30154151","1311127584","S4",  32.53530,-117.12500,"20131112",1235,,"m","e",40,"CFU/100 mL","e",26,"CFU/100 mL","",72,"CFU/100 mL",
"201311COLISBOO.csv","2014JAN30154151","1311127585","S5",  32.55780,-117.13100,"20131112",1125,,"m","<",2,"CFU/100 mL","e",2,"CFU/100 mL","<",2,"CFU/100 mL",
"201311COLISBOO.csv","2014JAN30154151","1311127586","S6",  32.56630,-117.13300,"20131112",1145,,"m","<",20,"CFU/100 mL","e",2,"CFU/100 mL","<",2,"CFU/100 mL",
"201311COLISBOO.csv","2014JAN30154151","1311127587","S8",  32.63680,-117.14400,"20131112",1046,,"m","<",20,"CFU/100 mL","<",2,"CFU/100 mL","<",2,"CFU/100 mL",
"201311COLISBOO.csv","2014JAN30154151","1311127588","S9",  32.67700,-117.17800,"20131112",1025,,"m","<",20,"CFU/100 mL","<",2,"CFU/100 mL","<",2,"CFU/100 mL",
"201311COLISBOO.csv","2014JAN30154151","1311187634","I25",  32.56117,-117.14800,"20131118",1022,2,"m","<",2,"CFU/100 mL","<",2,"CFU/100 mL","<",2,"CFU/100 mL",
"201311COLISBOO.csv","2014JAN30154151","1311187635","I25",  32.56117,-117.14800,"20131118",1022,6,"m","e",2,"CFU/100 mL","<",2,"CFU/100 mL","<",2,"CFU/100 mL",
"201311COLISBOO.csv","2014JAN30154151","1311187636","I25",  32.56117,-117.14800,"20131118",1022,9,"m","e",2,"CFU/100 mL","<",2,"CFU/100 mL","<",2,"CFU/100 mL",
"201311COLISBOO.csv","2014JAN30154151","1311187637","I26",  32.57450,-117.14700,"20131118",1032,2,"m","<",2,"CFU/100 mL","<",2,"CFU/100 mL","<",2,"CFU/100 mL",
"201311COLISBOO.csv","2014JAN30154151","1311187638","I26",  32.57450,-117.14700,"20131118",1032,6,"m","e",4,"CFU/100 mL","<",2,"CFU/100 mL","<",2,"CFU/100 mL",
"201311COLISBOO.csv","2014JAN30154151","1311187639","I26",  32.57450,-117.14700,"20131118",1032,9,"m","<",2,"CFU/100 mL","<",2,"CFU/100 mL","<",2,"CFU/100 mL",
"201311COLISBOO.csv","2014JAN30154151","1311187640","I39",  32.57233,-117.16750,"20131118",1006,2,"m","<",2,"CFU/100 mL","<",2,"CFU/100 mL","<",2,"CFU/100 mL",
"201311COLISBOO.csv","2014JAN30154151","1311187641","I39",  32.57233,-117.16750,"20131118",1006,12,"m","<",2,"CFU/100 mL","<",2,"CFU/100 mL","<",2,"CFU/100 mL",
"201311COLISBOO.csv","2014JAN30154151","1311187642","I39",  32.57233,-117.16750,"20131118",1006,18,"m","e",4,"CFU/100 mL","<",2,"CFU/100 mL","<",2,"CFU/100 mL",
"201311COLISBOO.csv","2014JAN30154151","1311197810","S0",  32.41913,-117.09728,"20131119",1130,,"m","e",2400,"CFU/100 mL","e",1200,"CFU/100 mL","e",130,"CFU/100 mL",
"201311COLISBOO.csv","2014JAN30154151","1311197811","S10",  32.54330,-117.12500,"20131119",1041,,"m","e",2,"CFU/100 mL","<",2,"CFU/100 mL","<",2,"CFU/100 mL",
"201311COLISBOO.csv","2014JAN30154151","1311197813","S12",  32.58570,-117.13300,"20131119",1117,,"m","e",4,"CFU/100 mL","e",4,"CFU/100 mL","<",2,"CFU/100 mL",
"201311COLISBOO.csv","2014JAN30154151","1311197814","S2",  32.49870,-117.12300,"20131119",1025,,"m","e",6,"CFU/100 mL","<",2,"CFU/100 mL","<",2,"CFU/100 mL",
"201311COLISBOO.csv","2014JAN30154151","1311197815","S3",  32.52570,-117.12400,"20131119",920,,"m","e",4,"CFU/100 mL","e",2,"CFU/100 mL","<",2,"CFU/100 mL",
"201311COLISBOO.csv","2014JAN30154151","1311197816","S4",  32.53530,-117.12500,"20131119",1015,,"m","e",4,"CFU/100 mL","<",2,"CFU/100 mL","e",2,"CFU/100 mL",
"201311COLISBOO.csv","2014JAN30154151","1311197817","S5",  32.55780,-117.13100,"20131119",830,,"m","e",20,"CFU/100 mL","<",2,"CFU/100 mL","e",2,"CFU/100 mL",
"201311COLISBOO.csv","2014JAN30154151","1311197818","S6",  32.56630,-117.13300,"20131119",855,,"m","e",20,"CFU/100 mL","<",2,"CFU/100 mL","<",2,"CFU/100 mL",
"201311COLISBOO.csv","2014JAN30154151","1311197819","S8",  32.63680,-117.14400,"20131119",1137,,"m","<",20,"CFU/100 mL","<",2,"CFU/100 mL","<",2,"CFU/100 mL",
"201311COLISBOO.csv","2014JAN30154151","1311197820","S9",  32.67700,-117.17800,"20131119",1200,,"m","<",20,"CFU/100 mL","<",2,"CFU/100 mL","e",4,"CFU/100 mL",
"201311COLISBOO.csv","2014JAN30154151","1311197822","S11",  32.56130,-117.13200,"20131119",847,,"m","e",6,"CFU/100 mL","e",2,"CFU/100 mL","<",2,"CFU/100 mL",
"201311COLISBOO.csv","2014JAN30154151","1311247874","I25",  32.56117,-117.14800,"20131124",1118,2,"m","",150,"CFU/100 mL","e",18,"CFU/100 mL","e",2,"CFU/100 mL",